Wadesboro, NC

1:46 PM EDT on April 19, 2018 (GMT -0400)
Anson County

Weather History for KAFP - January, 2013

Change the Weather History Date:

Thursday, January 31, 2013

  Actual Average (KCLT) Record (KCLT)
Temperature  
Mean Temperature 42 °F -  
Max Temperature 52 °F 54 °F 77 °F (1975)
Min Temperature 32 °F 31 °F 4 °F (1966)
Degree Days  
Heating Degree Days 23    
Moisture  
Dew Point 28 °F    
Average Humidity 51    
Maximum Humidity 88    
Minimum Humidity 23    
Precipitation  
Precipitation 0.03 in - - ()
Sea Level Pressure  
Sea Level Pressure 29.87 in    
Wind  
Wind Speed 10 mph (WSW)    
Max Wind Speed 17 mph    
Max Gust Speed 28 mph    
Visibility 10 miles    
Events Rain    
Averages and records for this station are not official NWS values.
T = Trace of Precipitation, MM = Missing Value Source: NWS Daily Summary

Daily Weather History Graph

Daily Weather History Graph

Search for Another Location

Airport or City:

Astronomy

Jan. 31, 2013 Rise Set
Actual Time 7:19 AM EST 5:48 PM EST
Civil Twilight 6:53 AM EST 6:14 PM EST
Nautical Twilight 6:22 AM EST 6:45 PM EST
Astronomical Twilight 5:52 AM EST 7:15 PM EST
Moon 10:34 PM EST (1/31) 9:31 AM EST (1/31)
Length of Visible Light 11h 21m
Length of Day
10h 28m
Waning Gibbous, 80% of the Moon is Illuminated
Jan 31
Waning Gibbous
Feb 3
Last Quarter
Feb 10
New
Feb 17
First Quarter
Feb 25
Full

Hourly Weather History & Observations

Time (EST) Temp. Windchill Dew Point Humidity Pressure Visibility Wind Dir Wind Speed Gust Speed Precip Events Conditions
12:15 AM 52.7 °F - 49.1 °F 88% 29.60 in 10.0 mi SSW 12.7 mph 19.6 mph 0.03 in Rain Light Rain
12:35 AM 52.2 °F - 48.6 °F 88% 29.59 in 10.0 mi SSW 10.4 mph 19.6 mph 0.03 in   Overcast
12:55 AM 52.0 °F - 47.5 °F 85% 29.60 in 10.0 mi SSW 11.5 mph 19.6 mph 0.03 in   Overcast
1:15 AM 52.0 °F - 46.9 °F 83% 29.60 in 10.0 mi SSW 13.8 mph 19.6 mph N/A   Overcast
1:35 AM 52.2 °F - 46.4 °F 81% 29.60 in 10.0 mi SSW 11.5 mph 21.9 mph N/A   Overcast
1:55 AM 52.3 °F - 46.2 °F 80% 29.60 in 10.0 mi SSW 12.7 mph 20.7 mph N/A   Overcast
2:15 AM 52.3 °F - 45.5 °F 78% 29.61 in 10.0 mi SW 17.3 mph 26.5 mph N/A   Overcast
2:35 AM 52.0 °F - 44.8 °F 76% 29.60 in 10.0 mi SSW 17.3 mph 25.3 mph N/A   Scattered Clouds
2:55 AM 51.8 °F - 43.7 °F 74% 29.62 in 10.0 mi SW 12.7 mph 23.0 mph N/A   Scattered Clouds
3:15 AM 51.3 °F - 42.8 °F 73% 29.62 in 10.0 mi SW 13.8 mph 25.3 mph N/A   Scattered Clouds
3:35 AM 50.9 °F - 41.5 °F 70% 29.63 in 10.0 mi SW 12.7 mph 26.5 mph N/A   Scattered Clouds
3:55 AM 50.5 °F - 40.1 °F 67% 29.65 in 10.0 mi SW 15.0 mph 24.2 mph N/A   Mostly Cloudy
4:15 AM 49.5 °F - 39.4 °F 68% 29.66 in 10.0 mi WSW 12.7 mph 26.5 mph N/A   Scattered Clouds
4:35 AM 49.1 °F - 37.9 °F 65% 29.67 in 10.0 mi WSW 15.0 mph 27.6 mph N/A   Clear
4:55 AM 48.4 °F - 37.0 °F 65% 29.69 in 10.0 mi SW 4.6 mph 20.7 mph N/A   Clear
5:15 AM 47.3 °F - 36.1 °F 65% 29.70 in 10.0 mi SW 8.1 mph 18.4 mph N/A   Clear
5:35 AM 46.8 °F - 34.9 °F 63% 29.73 in 10.0 mi WSW 12.7 mph 21.9 mph N/A   Scattered Clouds
5:55 AM 46.6 °F - 34.5 °F 63% 29.74 in 10.0 mi WSW 15.0 mph 20.7 mph N/A   Mostly Cloudy
6:15 AM 46.4 °F 42.9 °F 34.3 °F 63% 29.75 in 10.0 mi WSW 6.9 mph 16.1 mph N/A   Overcast
6:35 AM 45.5 °F 41.3 °F 34.3 °F 65% 29.77 in 10.0 mi WSW 8.1 mph 16.1 mph N/A   Mostly Cloudy
6:55 AM 44.6 °F 42.2 °F 34.2 °F 67% 29.78 in 10.0 mi WSW 4.6 mph - N/A   Scattered Clouds
7:15 AM 44.1 °F 40.1 °F 33.8 °F 67% 29.80 in 10.0 mi WSW 6.9 mph - N/A   Clear
7:35 AM 43.9 °F 40.5 °F 33.6 °F 67% 29.83 in 10.0 mi WSW 5.8 mph - N/A   Clear
7:55 AM 44.2 °F 39.2 °F 26.8 °F 50% 29.84 in 10.0 mi West 9.2 mph 17.3 mph N/A   Clear
8:15 AM 44.6 °F 40.2 °F 23.4 °F 43% 29.86 in 10.0 mi West 8.1 mph - N/A   Clear
8:35 AM 44.8 °F 41.0 °F 23.9 °F 44% 29.88 in 10.0 mi West 6.9 mph - N/A   Clear
8:55 AM 45.5 °F 41.3 °F 23.4 °F 42% 29.89 in 10.0 mi West 8.1 mph - N/A   Clear
9:15 AM 45.5 °F 40.3 °F 21.9 °F 39% 29.91 in 10.0 mi WNW 10.4 mph 17.3 mph N/A   Clear
9:35 AM 46.6 °F - 22.1 °F 38% 29.92 in 10.0 mi West 10.4 mph 17.3 mph N/A   Clear
9:55 AM 46.0 °F 40.6 °F 18.9 °F 34% 29.92 in 10.0 mi West 11.5 mph 23.0 mph N/A   Clear
10:15 AM 46.9 °F - 19.0 °F 33% 29.93 in 10.0 mi WNW 10.4 mph 17.3 mph N/A   Clear
10:35 AM 47.3 °F - 19.2 °F 33% 29.93 in 10.0 mi WSW 12.7 mph 20.7 mph N/A   Clear
10:55 AM 47.7 °F - 18.3 °F 31% 29.93 in 10.0 mi West 10.4 mph 20.7 mph N/A   Clear
11:15 AM 48.2 °F - 18.9 °F 31% 29.93 in 10.0 mi WNW 10.4 mph 18.4 mph N/A   Clear
11:35 AM 48.6 °F - 18.9 °F 31% 29.92 in 10.0 mi West 10.4 mph 18.4 mph N/A   Clear
11:55 AM 49.3 °F - 18.3 °F 29% 29.92 in 10.0 mi West 11.5 mph 18.4 mph N/A   Clear
12:15 PM 50.0 °F - 18.3 °F 29% 29.92 in 10.0 mi West 11.5 mph 18.4 mph N/A   Clear
12:35 PM 50.5 °F - 18.7 °F 28% 29.92 in 10.0 mi West 9.2 mph 17.3 mph N/A   Clear
12:55 PM 50.4 °F - 17.2 °F 27% 29.91 in 10.0 mi West 11.5 mph 20.7 mph N/A   Clear
1:15 PM 51.1 °F - 16.2 °F 25% 29.91 in 10.0 mi West 10.4 mph 20.7 mph N/A   Clear
1:35 PM 51.3 °F - 17.2 °F 26% 29.91 in 10.0 mi West 10.4 mph 23.0 mph N/A   Clear
1:55 PM 51.8 °F - 17.6 °F 26% 29.91 in 10.0 mi West 10.4 mph 19.6 mph N/A   Clear
2:15 PM 51.8 °F - 15.3 °F 23% 29.92 in 10.0 mi West 15.0 mph 21.9 mph N/A   Clear
2:35 PM 52.2 °F - 17.1 °F 25% 29.92 in 10.0 mi SW 10.4 mph 18.4 mph N/A   Clear
2:55 PM 51.6 °F - 17.4 °F 26% 29.93 in 10.0 mi West 8.1 mph 16.1 mph N/A   Clear
3:15 PM 52.0 °F - 18.0 °F 26% 29.93 in 10.0 mi West 6.9 mph - N/A   Clear
3:35 PM 51.8 °F - 17.4 °F 26% 29.95 in 10.0 mi West 8.1 mph 21.9 mph N/A   Clear
3:55 PM 51.3 °F - 17.4 °F 26% 29.96 in 10.0 mi WSW 12.7 mph 18.4 mph N/A   Clear
4:15 PM 51.3 °F - 18.0 °F 27% 29.97 in 10.0 mi West 8.1 mph 19.6 mph N/A   Clear
4:35 PM 50.9 °F - 18.1 °F 27% 29.97 in 10.0 mi West 6.9 mph 18.4 mph N/A   Clear
4:55 PM 50.4 °F - 18.5 °F 28% 29.98 in 10.0 mi West 6.9 mph 16.1 mph N/A   Clear
5:15 PM 50.0 °F - 17.8 °F 28% 29.98 in 10.0 mi WSW 5.8 mph - N/A   Clear
5:35 PM 48.6 °F - 19.0 °F 31% 29.98 in 10.0 mi SW 4.6 mph - N/A   Clear
5:55 PM 47.7 °F - 19.6 °F 33% 29.98 in 10.0 mi Calm Calm - N/A   Clear
6:15 PM 46.0 °F - 20.8 °F 37% 29.99 in 10.0 mi Calm Calm - N/A   Clear
6:35 PM 44.1 °F - 22.5 °F 42% 30.00 in 10.0 mi Calm Calm - N/A   Clear
6:55 PM 42.3 °F - 27.0 °F 55% 30.01 in 10.0 mi Calm Calm - N/A   Clear
7:15 PM 40.6 °F - 25.5 °F 55% 30.02 in 10.0 mi Calm Calm - N/A   Clear
7:35 PM 42.6 °F - 22.5 °F 45% 30.03 in 10.0 mi Calm Calm - N/A   Clear
7:55 PM 38.3 °F - 25.7 °F 61% 30.03 in 10.0 mi Calm Calm - N/A   Clear
8:15 PM 37.2 °F - 25.3 °F 62% 30.03 in 10.0 mi Calm Calm - N/A   Clear
8:35 PM 36.0 °F - 28.8 °F 75% 30.04 in 10.0 mi Calm Calm - N/A   Clear
8:55 PM 34.5 °F - 27.5 °F 76% 30.04 in 10.0 mi Calm Calm - N/A   Clear
9:15 PM 33.8 °F 30.8 °F 28.2 °F 80% 30.05 in 10.0 mi South 3.5 mph - N/A   Clear
9:35 PM 32.7 °F 29.6 °F 27.5 °F 81% 30.04 in 10.0 mi South 3.5 mph - N/A   Clear
10:15 PM 38.3 °F 33.9 °F 24.4 °F 57% 30.04 in 10.0 mi SSW 5.8 mph - N/A   Clear
10:35 PM 37.8 °F 34.2 °F 24.6 °F 59% 30.06 in 10.0 mi SSW 4.6 mph - N/A   Clear
11:15 PM 39.6 °F 34.7 °F 23.9 °F 54% 30.06 in 10.0 mi SSW 6.9 mph - N/A   Clear
11:35 PM 39.6 °F 33.5 °F 23.4 °F 52% 30.05 in 10.0 mi SSW 9.2 mph - N/A   Clear
11:55 PM 40.1 °F 34.1 °F 23.5 °F 52% 30.06 in 10.0 mi SSW 9.2 mph - N/A   Clear